Ludowici, Georgia
Current Conditions -  °F | °C
As of 8:35 AM on Wednesday 22 Oct 2014 (Local Time) from KJES Reporting Station
Clear Clear  
Wind Chill: 59°   Ceiling: Unl
Heat Index: 59°   Visibility: 10mi
Dew Point: 52°   Wind: 5mph
Humidity: 77%   Direction: 40°NE
Pressure: 30.05"   Gusts: NA
Location:  31.71°N, 81.74°W
Report Text: KJES 221235Z AUTO 04004KT 10SM CLR 15/11 A3005 RMK AO2
Loading
Personal Weather Stations






























Interactive Weather Map
Tropical Storm Tracking
New forecast layout! Learn more

10-Day Weather Forecast

Advertisements
Track Severe Weather on mobile